Location: Unspecified
(52.4292°N, 19.3359°E)
Time: 01:10:34
(UTC+02:00)

Altair - Pass Details

Date: 25 May 2024
Orbit: 1502 x 1682 km, 47.2° (Epoch: 20 June)

Event Time Altitude Azimuth Distance (km) Brightness Sun altitude
Rises 10:58:56 0° 236° (SW) 4,815 10.1 53.1°
Reaches altitude 10° 11:02:05 10° 232° (SW) 3,854 9.7 53.4°
Maximum altitude 11:11:36 55° 159° (SSE) 1,945 10.6 54.3°
Drops below altitude 10° 11:21:21 10° 85° (E) 3,947 10.0 55.2°
Sets 11:24:36 0° 82° (E) 4,938 10.3 55.5°
